This demonstration page uses our WeatherBlox Daily Observations layout. Learn more.

Left ArrowRight Arrow

Hourly Observations for April 9, 2021

Temp ( °F °C ) Dew Point ( °F °C ) Humidity (%) Winds ( mph kmh ) Pressure ( in mb ) Visibility ( mi km ) Precip ( " mm )
12:53 am 00:53 Clear 53 11.7 39 3.9 59 59 N 5 7 30.06 1018 10 16 0.00 0.00
1:53 am 01:53 Clear 49 9.4 40 4.4 71 71 NNE 5 7 30.05 1018 10 16 0.00 0.00
2:53 am 02:53 Clear 46 7.8 39 3.9 77 77 NNE 6 9 30.04 1017 10 16 0.00 0.00
3:53 am 03:53 Clear 47 8.3 39 3.9 74 74 Calm 30.04 1017 10 16 0.00 0.00
4:53 am 04:53 Clear 44 6.7 39 3.9 83 83 Calm 30.04 1017 10 16 0.00 0.00
5:53 am 05:53 Clear 42 5.6 37 2.8 82 82 N 3 6 30.04 1017 10 16 0.00 0.00
6:53 am 06:53 Sunny 43 6.1 37 2.8 80 80 N 3 6 30.05 1018 9 14 0.00 0.00
7:53 am 07:53 Sunny 46 7.8 38 3.3 73 73 Calm 30.08 1019 10 16 0.00 0.00
8:53 am 08:53 Sunny 54 12.2 42 5.6 64 64 ESE 3 6 30.08 1019 10 16 0.00 0.00
9:53 am 09:53 Sunny 59 15 41 5 51 51 SE 5 7 30.08 1019 10 16 0.00 0.00
10:53 am 10:53 Sunny 65 18.3 40 4.4 40 40 Calm 30.08 1019 10 16 0.00 0.00
11:53 am 11:53 Sunny 69 20.6 36 2.2 30 30 Calm 30.06 1018 10 16 0.00 0.00
12:53 pm 12:53 Sunny 70 21.1 37 2.8 30 30 S 3 6 30.04 1017 10 16 0.00 0.00
1:53 pm 13:53 Sunny 72 22.2 35 1.7 26 26 S 5 7 30.02 1017 10 16 0.00 0.00
2:53 pm 14:53 Sunny 74 23.3 38 3.3 27 27 SE 7 11 29.99 1016 10 16 0.00 0.00
3:53 pm 15:53 Sunny 75 23.9 37 2.8 25 25 S 10 17 29.97 1015 10 16 0.00 0.00
4:53 pm 16:53 Sunny 75 23.9 37 2.8 25 25 SSW 8 13 29.95 1014 10 16 0.00 0.00
5:53 pm 17:53 Sunny 75 23.9 37 2.8 25 25 SSW 8 13 29.94 1014 10 16 0.00 0.00
6:53 pm 18:53 Sunny 73 22.8 39 3.9 29 29 S 7 11 29.94 1014 10 16 0.00 0.00
7:53 pm 19:53 Clear 68 20 41 5 38 38 SSE 5 7 29.94 1014 10 16 0.00 0.00
8:53 pm 20:53 Clear 64 17.8 43 6.1 46 46 Calm 29.96 1015 10 16 0.00 0.00
9:53 pm 21:53 Clear 60 15.6 43 6.1 53 53 Calm 29.98 1015 10 16 0.00 0.00
10:53 pm 22:53 Clear 56 13.3 44 6.7 65 65 NE 3 6 29.99 1016 10 16 0.00 0.00
11:53 pm 23:53 Clear 55 12.8 43 6.1 64 64 Calm 30.02 1017 10 16 0.00 0.00

Powered by AerisWeather